Location: Anumalkud?ru
(16.4847°N, 80.6636°E)
Time: 15:23:31
(UTC+00:00)

GPS 2-15 Rocket1 - Pass Details

Date: 11 April 2026
Orbit: 607 x 651 km, 19.8° (Epoch: 11 May)

Event Time Altitude Azimuth Distance (km) Brightness Sun altitude
Rises 13:49:23 0° 281° (W) 2,860 8.5 -14.3°
Reaches altitude 10° 13:51:45 10° 279° (W) 1,950 7.0 -14.9°
Maximum altitude 13:56:18 78° 194° (SSW) 618 3.0 -15.9°
Enters shadow 13:58:27 30° 112° (ESE) 1,071 3.7 -16.4°
